Time,TemperatureF,DewpointF,PressureIn,WindDirection,WindDirectionDegrees,WindSpeedMPH,WindSpeedGustMPH,Humidity,HourlyPrecipIn,Conditions,Clouds,dailyrainin,SoftwareType,DateUTC
2013-02-18 00:02:00,42.2,38.0,30.12,SE,140,0.0,11.0,85,0.00,,,0.00,Wunderground v.1.15,2013-02-18 06:02:00,
2013-02-18 00:07:00,42.1,37.9,30.12,SSE,154,0.0,11.0,85,0.00,,,0.00,Wunderground v.1.15,2013-02-18 06:07:00,
2013-02-18 00:12:00,42.1,37.9,30.12,SSE,149,0.0,0.0,85,0.00,,,0.00,Wunderground v.1.15,2013-02-18 06:12:00,
2013-02-18 00:17:00,42.0,37.8,30.12,SE,130,0.0,0.0,85,0.00,,,0.00,Wunderground v.1.15,2013-02-18 06:17:00,
2013-02-18 00:22:00,42.0,37.8,30.12,SE,135,0.0,0.0,85,0.00,,,0.00,Wunderground v.1.15,2013-02-18 06:22:00,
2013-02-18 00:27:00,42.0,37.8,30.12,SE,135,0.0,0.0,85,0.00,,,0.00,Wunderground v.1.15,2013-02-18 06:27:00,
2013-02-18 00:32:00,42.0,38.1,30.12,SE,130,0.0,0.0,86,0.00,,,0.00,Wunderground v.1.15,2013-02-18 06:32:00,
2013-02-18 00:37:00,41.9,38.0,30.11,SE,130,0.0,5.0,86,0.00,,,0.00,Wunderground v.1.15,2013-02-18 06:37:00,
2013-02-18 00:42:00,41.8,37.9,30.11,SE,127,0.0,5.0,86,0.00,,,0.00,Wunderground v.1.15,2013-02-18 06:42:00,
2013-02-18 00:47:00,41.8,37.9,30.11,ESE,122,0.0,5.0,86,0.00,,,0.00,Wunderground v.1.15,2013-02-18 06:47:00,
2013-02-18 00:52:00,41.6,37.7,30.11,SE,140,0.0,5.0,86,0.00,,,0.00,Wunderground v.1.15,2013-02-18 06:52:00,
2013-02-18 00:57:00,41.5,37.6,30.11,SE,139,0.0,5.0,86,0.00,,,0.00,Wunderground v.1.15,2013-02-18 06:57:00,
2013-02-18 01:02:00,41.3,37.4,30.11,ESE,109,0.0,5.0,86,0.00,,,0.00,Wunderground v.1.15,2013-02-18 07:02:00,
2013-02-18 01:07:00,41.2,37.6,30.11,SE,131,0.0,5.0,87,0.00,,,0.00,Wunderground v.1.15,2013-02-18 07:07:00,
2013-02-18 01:12:00,41.3,37.7,30.11,SSE,152,0.0,5.0,87,0.00,,,0.00,Wunderground v.1.15,2013-02-18 07:12:00,
2013-02-18 01:17:00,41.4,37.8,30.11,SE,145,1.0,5.0,87,0.00,,,0.00,Wunderground v.1.15,2013-02-18 07:17:00,
2013-02-18 01:22:00,41.5,37.9,30.11,ESE,122,1.0,1.0,87,0.00,,,0.00,Wunderground v.1.15,2013-02-18 07:22:00,
2013-02-18 01:27:00,41.5,37.6,30.11,ESE,113,1.0,5.0,86,0.00,,,0.00,Wunderground v.1.15,2013-02-18 07:27:00,
2013-02-18 01:32:00,41.6,37.7,30.11,SSE,161,1.0,1.0,86,0.00,,,0.00,Wunderground v.1.15,2013-02-18 07:32:00,
2013-02-18 01:37:00,41.6,37.7,30.10,SE,134,1.0,3.0,86,0.00,,,0.00,Wunderground v.1.15,2013-02-18 07:37:00,
2013-02-18 01:42:00,41.6,37.7,30.10,SSE,153,1.0,1.0,86,0.00,,,0.00,Wunderground v.1.15,2013-02-18 07:42:00,
2013-02-18 01:47:00,41.5,37.6,30.10,ESE,119,1.0,5.0,86,0.00,,,0.00,Wunderground v.1.15,2013-02-18 07:47:00,
2013-02-18 01:52:00,41.5,37.3,30.10,SSE,153,0.0,5.0,85,0.00,,,0.00,Wunderground v.1.15,2013-02-18 07:52:00,
2013-02-18 01:57:00,41.6,37.4,30.10,SSE,152,1.0,5.0,85,0.00,,,0.00,Wunderground v.1.15,2013-02-18 07:57:00,
2013-02-18 02:02:00,41.8,37.6,30.10,ESE,115,1.0,1.0,85,0.00,,,0.00,Wunderground v.1.15,2013-02-18 08:02:00,
2013-02-18 02:07:00,42.1,37.6,30.09,SE,127,2.0,2.0,84,0.00,,,0.00,Wunderground v.1.15,2013-02-18 08:07:00,
2013-02-18 02:12:00,42.2,37.7,30.09,SE,129,2.0,2.0,84,0.00,,,0.00,Wunderground v.1.15,2013-02-18 08:12:00,
2013-02-18 02:17:00,42.3,37.8,30.09,SE,135,1.0,5.0,84,0.00,,,0.00,Wunderground v.1.15,2013-02-18 08:17:00,
2013-02-18 02:22:00,42.3,37.8,30.08,SSE,156,1.0,1.0,84,0.00,,,0.00,Wunderground v.1.15,2013-02-18 08:22:00,
2013-02-18 02:27:00,42.4,37.9,30.08,SE,133,1.0,2.0,84,0.00,,,0.00,Wunderground v.1.15,2013-02-18 08:27:00,
2013-02-18 02:32:00,42.4,37.6,30.08,SE,136,1.0,5.0,83,0.00,,,0.00,Wunderground v.1.15,2013-02-18 08:32:00,
2013-02-18 02:37:00,42.4,37.6,30.08,ESE,123,1.0,5.0,83,0.00,,,0.00,Wunderground v.1.15,2013-02-18 08:37:00,
2013-02-18 02:42:00,42.3,37.8,30.08,SE,130,1.0,5.0,84,0.00,,,0.00,Wunderground v.1.15,2013-02-18 08:42:00,
2013-02-18 02:47:00,42.3,37.8,30.08,SE,127,1.0,5.0,84,0.00,,,0.00,Wunderground v.1.15,2013-02-18 08:47:00,
2013-02-18 02:52:00,42.3,37.8,30.08,ESE,110,1.0,5.0,84,0.00,,,0.00,Wunderground v.1.15,2013-02-18 08:52:00,
2013-02-18 02:57:00,42.4,37.9,30.08,SE,124,1.0,5.0,84,0.00,,,0.00,Wunderground v.1.15,2013-02-18 08:57:00,
2013-02-18 03:02:00,42.4,37.9,30.08,ESE,123,1.0,5.0,84,0.00,,,0.00,Wunderground v.1.15,2013-02-18 09:02:00,
2013-02-18 03:07:00,42.4,37.9,30.07,SE,128,1.0,5.0,84,0.00,,,0.00,Wunderground v.1.15,2013-02-18 09:07:00,
2013-02-18 03:12:00,42.4,37.9,30.07,SE,134,1.0,1.0,84,0.00,,,0.00,Wunderground v.1.15,2013-02-18 09:12:00,
2013-02-18 03:17:00,42.4,37.9,30.07,South,176,1.0,2.0,84,0.00,,,0.00,Wunderground v.1.15,2013-02-18 09:17:00,
2013-02-18 03:22:00,42.5,38.0,30.08,SSW,192,1.0,5.0,84,0.00,,,0.00,Wunderground v.1.15,2013-02-18 09:22:00,
2013-02-18 03:27:00,42.4,37.9,30.08,SE,129,1.0,5.0,84,0.00,,,0.00,Wunderground v.1.15,2013-02-18 09:27:00,
2013-02-18 03:37:00,42.4,37.9,30.08,South,173,1.0,5.0,84,0.00,,,0.00,Wunderground v.1.15,2013-02-18 09:37:00,
2013-02-18 03:42:00,42.5,38.0,30.08,SSE,154,1.0,5.0,84,0.00,,,0.00,Wunderground v.1.15,2013-02-18 09:42:00,
2013-02-18 03:47:00,42.5,38.3,30.08,South,171,1.0,5.0,85,0.00,,,0.00,Wunderground v.1.15,2013-02-18 09:47:00,
2013-02-18 03:52:00,42.7,38.5,30.08,SSE,168,2.0,5.0,85,0.00,,,0.00,Wunderground v.1.15,2013-02-18 09:52:00,
2013-02-18 03:57:00,42.8,38.3,30.08,SE,142,2.0,5.0,84,0.00,,,0.00,Wunderground v.1.15,2013-02-18 09:57:00,
2013-02-18 04:07:00,43.1,38.9,30.07,ESE,117,2.0,5.0,85,0.00,,,0.00,Wunderground v.1.15,2013-02-18 10:07:00,
2013-02-18 04:12:00,43.2,39.0,30.07,SE,139,2.0,5.0,85,0.00,,,0.00,Wunderground v.1.15,2013-02-18 10:12:00,
2013-02-18 04:17:00,43.4,39.2,30.07,ESE,113,2.0,5.0,85,0.00,,,0.00,Wunderground v.1.15,2013-02-18 10:17:00,
2013-02-18 04:22:00,43.4,38.9,30.07,SE,130,2.0,2.0,84,0.00,,,0.00,Wunderground v.1.15,2013-02-18 10:22:00,
2013-02-18 04:27:00,43.3,39.1,30.07,SE,128,1.0,3.0,85,0.00,,,0.00,Wunderground v.1.15,2013-02-18 10:27:00,
2013-02-18 04:32:00,43.3,39.1,30.07,SE,143,1.0,5.0,85,0.00,,,0.00,Wunderground v.1.15,2013-02-18 10:32:00,
2013-02-18 04:37:00,43.3,39.1,30.07,SSE,156,1.0,5.0,85,0.00,,,0.00,Wunderground v.1.15,2013-02-18 10:37:00,
2013-02-18 04:42:00,43.4,39.5,30.07,ESE,117,1.0,5.0,86,0.00,,,0.00,Wunderground v.1.15,2013-02-18 10:42:00,
2013-02-18 04:47:00,43.5,39.6,30.07,SE,138,2.0,5.0,86,0.00,,,0.00,Wunderground v.1.15,2013-02-18 10:47:00,
2013-02-18 04:52:00,43.5,39.6,30.07,East,88,1.0,1.0,86,0.00,,,0.00,Wunderground v.1.15,2013-02-18 10:52:00,
2013-02-18 04:57:00,43.4,39.8,30.07,ESE,102,1.0,5.0,87,0.00,,,0.00,Wunderground v.1.15,2013-02-18 10:57:00,
2013-02-18 05:02:00,43.5,39.9,30.07,SE,124,1.0,5.0,87,0.00,,,0.00,Wunderground v.1.15,2013-02-18 11:02:00,
2013-02-18 05:07:00,43.6,40.0,30.07,ESE,114,1.0,5.0,87,0.00,,,0.00,Wunderground v.1.15,2013-02-18 11:07:00,
2013-02-18 05:22:00,43.6,40.0,30.07,ESE,115,1.0,1.0,87,0.00,,,0.00,Wunderground v.1.15,2013-02-18 11:22:00,
2013-02-18 05:27:00,43.6,40.0,30.07,ESE,114,1.0,1.0,87,0.00,,,0.00,Wunderground v.1.15,2013-02-18 11:27:00,
2013-02-18 05:32:00,43.5,39.9,30.07,ESE,115,1.0,1.0,87,0.00,,,0.00,Wunderground v.1.15,2013-02-18 11:32:00,
2013-02-18 05:37:00,43.3,39.7,30.07,SE,137,0.0,6.0,87,0.00,,,0.00,Wunderground v.1.15,2013-02-18 11:37:00,
2013-02-18 05:42:00,43.2,39.9,30.07,ESE,113,0.0,6.0,88,0.00,,,0.00,Wunderground v.1.15,2013-02-18 11:42:00,
2013-02-18 05:47:00,43.1,39.8,30.07,ESE,114,0.0,6.0,88,0.00,,,0.00,Wunderground v.1.15,2013-02-18 11:47:00,
2013-02-18 05:52:00,42.9,39.6,30.07,SE,134,0.0,6.0,88,0.00,,,0.00,Wunderground v.1.15,2013-02-18 11:52:00,
2013-02-18 05:57:00,42.7,39.4,30.07,SE,130,0.0,6.0,88,0.00,,,0.00,Wunderground v.1.15,2013-02-18 11:57:00,
2013-02-18 06:02:00,42.7,39.7,30.07,ESE,113,0.0,6.0,89,0.00,,,0.00,Wunderground v.1.15,2013-02-18 12:02:00,
2013-02-18 06:07:00,42.6,39.6,30.06,ESE,121,1.0,6.0,89,0.00,,,0.00,Wunderground v.1.15,2013-02-18 12:07:00,
2013-02-18 06:17:00,42.8,39.8,30.06,ESE,110,1.0,6.0,89,0.00,,,0.00,Wunderground v.1.15,2013-02-18 12:17:00,
2013-02-18 06:27:00,42.9,39.9,30.06,SSE,156,1.0,6.0,89,0.00,,,0.00,Wunderground v.1.15,2013-02-18 12:27:00,
2013-02-18 06:32:00,43.0,40.0,30.06,ESE,122,0.0,6.0,89,0.00,,,0.00,Wunderground v.1.15,2013-02-18 12:32:00,
2013-02-18 06:37:00,43.1,40.1,30.07,ESE,115,1.0,6.0,89,0.00,,,0.00,Wunderground v.1.15,2013-02-18 12:37:00,
2013-02-18 06:42:00,43.2,40.2,30.07,SE,132,1.0,1.0,89,0.00,,,0.00,Wunderground v.1.15,2013-02-18 12:42:00,
2013-02-18 06:47:00,43.3,40.3,30.07,ESE,106,1.0,6.0,89,0.00,,,0.00,Wunderground v.1.15,2013-02-18 12:47:00,
2013-02-18 06:52:00,43.4,40.4,30.07,East,85,1.0,6.0,89,0.00,,,0.00,Wunderground v.1.15,2013-02-18 12:52:00,
2013-02-18 06:57:00,43.7,40.7,30.07,ESE,105,1.0,6.0,89,0.00,,,0.00,Wunderground v.1.15,2013-02-18 12:57:00,
2013-02-18 07:02:00,43.8,40.5,30.07,ESE,115,1.0,6.0,88,0.00,,,0.00,Wunderground v.1.15,2013-02-18 13:02:00,
2013-02-18 07:07:00,44.1,40.8,30.07,SE,129,1.0,6.0,88,0.00,,,0.00,Wunderground v.1.15,2013-02-18 13:07:00,
2013-02-18 07:12:00,44.4,41.1,30.07,ESE,109,1.0,1.0,88,0.00,,,0.00,Wunderground v.1.15,2013-02-18 13:12:00,
2013-02-18 07:17:00,44.8,41.5,30.07,SE,136,2.0,2.0,88,0.00,,,0.00,Wunderground v.1.15,2013-02-18 13:17:00,
2013-02-18 07:22:00,45.2,41.6,30.07,East,86,2.0,2.0,87,0.00,,,0.00,Wunderground v.1.15,2013-02-18 13:22:00,
2013-02-18 07:27:00,45.7,42.1,30.07,ESE,123,2.0,3.0,87,0.00,,,0.00,Wunderground v.1.15,2013-02-18 13:27:00,
2013-02-18 07:37:00,46.8,42.5,30.07,SSE,152,3.0,6.0,85,0.00,,,0.00,Wunderground v.1.15,2013-02-18 13:37:00,
2013-02-18 07:42:00,47.3,43.0,30.07,East,85,2.0,2.0,85,0.00,,,0.00,Wunderground v.1.15,2013-02-18 13:42:00,
2013-02-18 07:47:00,48.1,43.5,30.07,ESE,105,2.0,6.0,84,0.00,,,0.00,Wunderground v.1.15,2013-02-18 13:47:00,
2013-02-18 07:52:00,48.8,43.9,30.08,SSE,150,2.0,6.0,83,0.00,,,0.00,Wunderground v.1.15,2013-02-18 13:52:00,
2013-02-18 07:57:00,49.5,44.2,30.08,SSE,148,3.0,6.0,82,0.00,,,0.00,Wunderground v.1.15,2013-02-18 13:57:00,
2013-02-18 08:02:00,50.1,44.5,30.08,ESE,113,4.0,4.0,81,0.00,,,0.00,Wunderground v.1.15,2013-02-18 14:02:00,
2013-02-18 08:07:00,50.4,44.8,30.07,ESE,117,4.0,6.0,81,0.00,,,0.00,Wunderground v.1.15,2013-02-18 14:07:00,
2013-02-18 08:12:00,51.0,45.0,30.07,ESE,120,3.0,6.0,80,0.00,,,0.00,Wunderground v.1.15,2013-02-18 14:12:00,
2013-02-18 08:17:00,51.6,45.6,30.07,South,169,3.0,6.0,80,0.00,,,0.00,Wunderground v.1.15,2013-02-18 14:17:00,
2013-02-18 08:22:00,52.3,46.0,30.06,ESE,121,3.0,6.0,79,0.00,,,0.00,Wunderground v.1.15,2013-02-18 14:22:00,
2013-02-18 08:27:00,53.0,46.7,30.06,SE,128,3.0,6.0,79,0.00,,,0.00,Wunderground v.1.15,2013-02-18 14:27:00,
2013-02-18 08:32:00,53.7,46.7,30.06,SE,140,4.0,4.0,77,0.00,,,0.00,Wunderground v.1.15,2013-02-18 14:32:00,
2013-02-18 08:42:00,55.6,48.2,30.07,SSE,148,3.0,6.0,76,0.00,,,0.00,Wunderground v.1.15,2013-02-18 14:42:00,
2013-02-18 08:47:00,56.4,48.2,30.07,SSE,150,4.0,6.0,74,0.00,,,0.00,Wunderground v.1.15,2013-02-18 14:47:00,
2013-02-18 08:52:00,56.6,47.7,30.06,West,267,4.0,4.0,72,0.00,,,0.00,Wunderground v.1.15,2013-02-18 14:52:00,
2013-02-18 08:57:00,56.7,47.8,30.06,SSE,165,4.0,6.0,72,0.00,,,0.00,Wunderground v.1.15,2013-02-18 14:57:00,
2013-02-18 09:02:00,56.8,47.9,30.06,SE,146,5.0,5.0,72,0.00,,,0.00,Wunderground v.1.15,2013-02-18 15:02:00,
2013-02-18 09:07:00,56.8,47.9,30.07,SSW,198,5.0,6.0,72,0.00,,,0.00,Wunderground v.1.15,2013-02-18 15:07:00,
2013-02-18 09:09:00,57.0,48.1,30.07,SSE,158,4.0,-999.0,72,0.00,,,0.00,Wunderground v.1.15,2013-02-18 15:09:00,
2013-02-18 09:14:00,57.0,48.1,30.07,SSE,158,4.0,-999.0,72,0.00,,,0.00,Wunderground v.1.15,2013-02-18 15:14:00,
2013-02-18 09:17:00,57.0,48.1,30.07,East,99,4.0,6.0,72,0.00,,,0.00,Wunderground v.1.15,2013-02-18 15:17:00,
2013-02-18 09:19:00,57.8,49.2,30.07,SSE,158,5.0,-999.0,73,0.00,,,0.00,Wunderground v.1.15,2013-02-18 15:19:00,
2013-02-18 09:24:00,57.8,49.2,30.07,SSE,158,5.0,-999.0,73,0.00,,,0.00,Wunderground v.1.15,2013-02-18 15:24:00,
2013-02-18 09:27:00,57.1,48.2,30.07,South,178,6.0,6.0,72,0.00,,,0.00,Wunderground v.1.15,2013-02-18 15:27:00,
2013-02-18 09:29:00,57.8,49.2,30.07,SSE,158,5.0,-999.0,73,0.00,,,0.00,Wunderground v.1.15,2013-02-18 15:29:00,
2013-02-18 09:32:00,57.1,48.5,30.07,ESE,113,6.0,6.0,73,0.00,,,0.00,Wunderground v.1.15,2013-02-18 15:32:00,
2013-02-18 09:34:00,57.8,49.2,30.07,SSE,158,5.0,-999.0,73,0.00,,,0.00,Wunderground v.1.15,2013-02-18 15:34:00,
2013-02-18 09:37:00,57.2,48.3,30.07,South,174,5.0,6.0,72,0.00,,,0.00,Wunderground v.1.15,2013-02-18 15:37:00,
2013-02-18 09:39:00,57.8,49.2,30.07,SSE,158,5.0,-999.0,73,0.00,,,0.00,Wunderground v.1.15,2013-02-18 15:39:00,
2013-02-18 09:44:00,57.8,49.2,30.07,SSE,158,5.0,-999.0,73,0.00,,,0.00,Wunderground v.1.15,2013-02-18 15:44:00,
2013-02-18 09:49:00,58.8,49.4,30.07,SE,135,5.0,-999.0,71,0.00,,,0.00,Wunderground v.1.15,2013-02-18 15:49:00,
2013-02-18 09:54:00,58.8,49.4,30.07,SE,135,5.0,-999.0,71,0.00,,,0.00,Wunderground v.1.15,2013-02-18 15:54:00,
2013-02-18 09:59:00,58.8,49.4,30.07,SE,135,5.0,-999.0,71,0.00,,,0.00,Wunderground v.1.15,2013-02-18 15:59:00,
2013-02-18 10:04:00,58.8,49.4,30.07,SE,135,5.0,-999.0,71,0.00,,,0.00,Wunderground v.1.15,2013-02-18 16:04:00,
2013-02-18 10:09:00,58.8,49.4,30.07,SE,135,5.0,-999.0,71,0.00,,,0.00,Wunderground v.1.15,2013-02-18 16:09:00,
2013-02-18 10:14:00,58.8,49.4,30.07,SE,135,5.0,-999.0,71,0.00,,,0.00,Wunderground v.1.15,2013-02-18 16:14:00,
2013-02-18 10:19:00,59.6,50.2,30.06,SSE,158,5.0,-999.0,71,0.00,,,0.00,Wunderground v.1.15,2013-02-18 16:19:00,
2013-02-18 10:24:00,59.6,50.2,30.06,SSE,158,5.0,-999.0,71,0.00,,,0.00,Wunderground v.1.15,2013-02-18 16:24:00,
2013-02-18 10:29:00,59.6,50.2,30.06,SSE,158,5.0,-999.0,71,0.00,,,0.00,Wunderground v.1.15,2013-02-18 16:29:00,
2013-02-18 10:34:00,59.6,50.2,30.06,SSE,158,5.0,-999.0,71,0.00,,,0.00,Wunderground v.1.15,2013-02-18 16:34:00,
2013-02-18 10:39:00,59.6,50.2,30.06,SSE,158,5.0,-999.0,71,0.00,,,0.00,Wunderground v.1.15,2013-02-18 16:39:00,
2013-02-18 10:44:00,59.6,50.2,30.06,SSE,158,5.0,-999.0,71,0.00,,,0.00,Wunderground v.1.15,2013-02-18 16:44:00,
2013-02-18 10:49:00,60.9,50.7,30.05,SSE,158,4.0,-999.0,69,0.00,,,0.00,Wunderground v.1.15,2013-02-18 16:49:00,
2013-02-18 10:54:00,60.9,50.7,30.05,SSE,158,4.0,-999.0,69,0.00,,,0.00,Wunderground v.1.15,2013-02-18 16:54:00,
2013-02-18 10:59:00,60.9,50.7,30.05,SSE,158,4.0,-999.0,69,0.00,,,0.00,Wunderground v.1.15,2013-02-18 16:59:00,
2013-02-18 11:04:00,60.9,50.7,30.05,SSE,158,4.0,-999.0,69,0.00,,,0.00,Wunderground v.1.15,2013-02-18 17:04:00,
2013-02-18 11:09:00,60.9,50.7,30.05,SSE,158,4.0,-999.0,69,0.00,,,0.00,Wunderground v.1.15,2013-02-18 17:09:00,
2013-02-18 11:14:00,60.9,50.7,30.05,SSE,158,4.0,-999.0,69,0.00,,,0.00,Wunderground v.1.15,2013-02-18 17:14:00,
2013-02-18 11:19:00,61.4,51.1,30.04,SSE,158,5.0,-999.0,69,0.00,,,0.00,Wunderground v.1.15,2013-02-18 17:19:00,
2013-02-18 11:24:00,61.4,51.1,30.04,SSE,158,5.0,-999.0,69,0.00,,,0.00,Wunderground v.1.15,2013-02-18 17:24:00,
2013-02-18 11:29:00,61.4,51.1,30.04,SSE,158,5.0,-999.0,69,0.00,,,0.00,Wunderground v.1.15,2013-02-18 17:29:00,
2013-02-18 11:34:00,61.4,51.1,30.04,SSE,158,5.0,-999.0,69,0.00,,,0.00,Wunderground v.1.15,2013-02-18 17:34:00,
2013-02-18 11:39:00,61.4,51.1,30.04,SSE,158,5.0,-999.0,69,0.00,,,0.00,Wunderground v.1.15,2013-02-18 17:39:00,
2013-02-18 11:44:00,61.4,51.1,30.04,SSE,158,5.0,-999.0,69,0.00,,,0.00,Wunderground v.1.15,2013-02-18 17:44:00,
2013-02-18 11:49:00,61.6,51.3,30.03,SSE,158,6.0,-999.0,69,0.00,,,0.00,Wunderground v.1.15,2013-02-18 17:49:00,
2013-02-18 11:54:00,61.6,51.3,30.03,SSE,158,6.0,-999.0,69,0.00,,,0.00,Wunderground v.1.15,2013-02-18 17:54:00,
2013-02-18 11:59:00,61.6,51.3,30.03,SSE,158,6.0,-999.0,69,0.00,,,0.00,Wunderground v.1.15,2013-02-18 17:59:00,
2013-02-18 12:04:00,61.6,51.3,30.03,SSE,158,6.0,-999.0,69,0.00,,,0.00,Wunderground v.1.15,2013-02-18 18:04:00,
2013-02-18 12:09:00,61.6,51.3,30.03,SSE,158,6.0,-999.0,69,0.00,,,0.00,Wunderground v.1.15,2013-02-18 18:09:00,
2013-02-18 12:14:00,61.6,51.3,30.03,SSE,158,6.0,-999.0,69,0.00,,,0.00,Wunderground v.1.15,2013-02-18 18:14:00,
2013-02-18 12:19:00,61.7,51.4,30.00,SE,135,5.0,-999.0,69,0.00,,,0.00,Wunderground v.1.15,2013-02-18 18:19:00,
2013-02-18 12:24:00,61.7,51.4,30.00,SE,135,5.0,-999.0,69,0.00,,,0.00,Wunderground v.1.15,2013-02-18 18:24:00,
2013-02-18 12:29:00,61.7,51.4,30.00,SE,135,5.0,-999.0,69,0.00,,,0.00,Wunderground v.1.15,2013-02-18 18:29:00,
2013-02-18 12:34:00,61.7,51.4,30.00,SE,135,5.0,-999.0,69,0.00,,,0.00,Wunderground v.1.15,2013-02-18 18:34:00,
2013-02-18 12:39:00,61.7,51.4,30.00,SE,135,5.0,-999.0,69,0.00,,,0.00,Wunderground v.1.15,2013-02-18 18:39:00,
2013-02-18 12:44:00,61.7,51.4,30.00,SE,135,5.0,-999.0,69,0.00,,,0.00,Wunderground v.1.15,2013-02-18 18:44:00,
2013-02-18 12:49:00,61.8,50.7,29.99,SE,135,6.0,-999.0,67,0.00,,,0.00,Wunderground v.1.15,2013-02-18 18:49:00,
2013-02-18 12:54:00,61.8,50.7,29.99,SE,135,6.0,-999.0,67,0.00,,,0.00,Wunderground v.1.15,2013-02-18 18:54:00,
2013-02-18 12:59:00,61.8,50.7,29.99,SE,135,6.0,-999.0,67,0.00,,,0.00,Wunderground v.1.15,2013-02-18 18:59:00,
2013-02-18 13:04:00,61.8,50.7,29.99,SE,135,6.0,-999.0,67,0.00,,,0.00,Wunderground v.1.15,2013-02-18 19:04:00,
2013-02-18 13:09:00,61.8,50.7,29.99,SE,135,6.0,-999.0,67,0.00,,,0.00,Wunderground v.1.15,2013-02-18 19:09:00,
2013-02-18 13:14:00,61.8,50.7,29.99,SE,135,6.0,-999.0,67,0.00,,,0.00,Wunderground v.1.15,2013-02-18 19:14:00,
2013-02-18 13:19:00,61.8,51.9,29.97,SSE,158,4.0,-999.0,70,0.00,,,0.00,Wunderground v.1.15,2013-02-18 19:19:00,
2013-02-18 13:24:00,61.8,51.9,29.97,SSE,158,4.0,-999.0,70,0.00,,,0.00,Wunderground v.1.15,2013-02-18 19:24:00,
2013-02-18 13:29:00,61.8,51.9,29.97,SSE,158,4.0,-999.0,70,0.00,,,0.00,Wunderground v.1.15,2013-02-18 19:29:00,
2013-02-18 13:34:00,61.8,51.9,29.97,SSE,158,4.0,-999.0,70,0.00,,,0.00,Wunderground v.1.15,2013-02-18 19:34:00,
2013-02-18 13:39:00,61.8,51.9,29.97,SSE,158,4.0,-999.0,70,0.00,,,0.00,Wunderground v.1.15,2013-02-18 19:39:00,
2013-02-18 13:44:00,61.8,51.9,29.97,SSE,158,4.0,-999.0,70,0.00,,,0.00,Wunderground v.1.15,2013-02-18 19:44:00,
2013-02-18 13:49:00,60.7,51.2,29.97,SE,135,5.0,-999.0,71,0.00,,,0.00,Wunderground v.1.15,2013-02-18 19:49:00,
2013-02-18 13:54:00,60.7,51.2,29.97,SE,135,5.0,-999.0,71,0.00,,,0.00,Wunderground v.1.15,2013-02-18 19:54:00,
2013-02-18 13:59:00,60.7,51.2,29.97,SE,135,5.0,-999.0,71,0.00,,,0.00,Wunderground v.1.15,2013-02-18 19:59:00,
2013-02-18 14:04:00,60.7,51.2,29.97,SE,135,5.0,-999.0,71,0.00,,,0.00,Wunderground v.1.15,2013-02-18 20:04:00,
2013-02-18 14:09:00,60.7,51.2,29.97,SE,135,5.0,-999.0,71,0.00,,,0.00,Wunderground v.1.15,2013-02-18 20:09:00,
2013-02-18 14:14:00,60.7,51.2,29.97,SE,135,5.0,-999.0,71,0.00,,,0.00,Wunderground v.1.15,2013-02-18 20:14:00,
2013-02-18 14:19:00,57.8,52.3,29.96,SE,135,6.0,-999.0,82,0.00,,,0.00,Wunderground v.1.15,2013-02-18 20:19:00,
2013-02-18 14:24:00,57.8,52.3,29.96,SE,135,6.0,-999.0,82,0.00,,,0.00,Wunderground v.1.15,2013-02-18 20:24:00,
2013-02-18 14:29:00,57.8,52.3,29.96,SE,135,6.0,-999.0,82,0.00,,,0.00,Wunderground v.1.15,2013-02-18 20:29:00,
2013-02-18 15:12:00,56.6,52.5,29.96,South,181,2.0,2.0,86,0.00,,,0.01,Wunderground v.1.15,2013-02-18 21:12:00,
2013-02-18 15:17:00,56.4,52.3,29.96,ENE,78,3.0,3.0,86,0.00,,,0.01,Wunderground v.1.15,2013-02-18 21:17:00,